Regional Weather Roundup
Issued by NWS

Home | Current Version | Previous Version | Graphics & Text | Print | Product List | Glossary On
Versions: 1 2 3 4 5 6 7 8 9 10 11 12 13 14 15 16 17 18 19 20 21 22 23 24 25 26 27 28 29 30 31 32 33 34 35 36 37 38 39 40 41 42 43 44 45 46 47 48 49 50
000
ASUS43 KLOT 191000
RWRIL

ILLINOIS REGIONAL WEATHER ROUNDUP
NATIONAL WEATHER SERVICE CHICAGO/ROMEOVILLE IL
400 AM CST FRI DEC 19 2014

NOTE: "FAIR" INDICATES FEW OR NO CLOUDS BELOW 12,000 FEET WITH NO
SIGNIFICANT WEATHER AND/OR OBSTRUCTIONS TO VISIBILITY.

* THESE STATIONS ARE NOT UNDER NWS QUALITY CONTROL. THEY ALSO MAY NOT
  REPORT WEATHER SUCH AS PRECIPITATION OR FOG.

ILZ001-002-007-009-015-016-024-191100-
NORTHWEST ILLINOIS

CITY           SKY/WX    TMP DP  RH WIND       PRES   REMARKS
MOLINE         CLEAR     16  12  84 CALM      30.30F
STERLING*      CLOUDY    25  18  74 W7        30.30S WCI  17
$$

ILZ003-004-008-010-011-017-018-191100-
NORTH CENTRAL ILLINOIS

CITY           SKY/WX    TMP DP  RH WIND       PRES   REMARKS
ROCKFORD       CLOUDY    27  20  75 NW8       30.30S WCI  19
$$

ILZ005-006-012>014-019>023-191100-
NORTHEAST ILLINOIS

CITY           SKY/WX    TMP DP  RH WIND       PRES   REMARKS
CHICAGO-OHARE  CLOUDY    28  23  81 NW6       30.26S WCI  22
CHICAGO-MIDWAY FLURRIES  30  23  75 W6        30.27F WCI  24
AURORA         CLOUDY    26  20  77 W5        30.28S WCI  20
WAUKEGAN       CLOUDY    27  21  78 W6        30.27R WCI  20
DUPAGE AIRPORT CLOUDY    27  21  78 W5        30.27S WCI  22
WHEELING       CLOUDY    28  23  81 N6        30.29S WCI  22
NORTHERLY ISL    N/A     30  25  81 W7          N/A  WCI  23
$$

LMZ740>746-191100-
SOUTHERN LAKE MICHIGAN

STATION/POSITION SKY/WX   TEMP    WIND        PRES    VSBY  WAVE
                          AIR SEA DIR/SP/G                  HT/PER
                          (F)     (DEG/KT/KT) (MB)    (MI)  (FT/S)
WAUKEGAN HARBOR            28     280/  5/  7   N/A
HARRISON CRIB              28     300/ 10/ 11   N/A
BURNHAM HARBOR             30     280/  5/ 11   N/A
CALUMET HARBOR             29     260/  5/  9 1023.5F
$$

ILZ025>027-034>036-040-047-049-050-058-095>099-191100-
WEST-CENTRAL ILLINOIS

CITY           SKY/WX    TMP DP  RH WIND       PRES   REMARKS
QUINCY         CLOUDY    28  24  85 CALM      30.28S
$$

ILZ028>032-037-038-041>044-048-051>054-059>061-191100-
CENTRAL ILLINOIS

CITY           SKY/WX    TMP DP  RH WIND       PRES   REMARKS
DECATUR        PTCLDY    22  19  89 CALM      30.29S
PEORIA         CLEAR     20  15  81 CALM      30.29F
SPRINGFIELD    CLOUDY    29  23  78 N3        30.30R
TAYLORVILLE    NOT AVBL
$$

ILZ033-039-045-046-055>057-062-063-191100-
EAST-CENTRAL ILLINOIS

CITY           SKY/WX    TMP DP  RH WIND       PRES   REMARKS
CHAMPAIGN      CLEAR     18  14  84 N3        30.28S
MATTOON        CLEAR     23  19  85 N6        30.28R WCI  16
$$

ILZ079-100>102-191100-
SOUTHWEST ILLINOIS

CITY           SKY/WX    TMP DP  RH WIND       PRES   REMARKS
CAHOKIA*       CLOUDY    33  28  81 NE3       30.29F
$$

ILZ064>066-069>071-074>076-080>082-084>086-088>090-092>094-191100-
SOUTH-CENTRAL ILLINOIS

CITY           SKY/WX    TMP DP  RH WIND       PRES   REMARKS
CARBONDALE     CLOUDY    32  26  78 NE3       30.28F
MT. VERNON     PTCLDY    25  19  80 CALM      30.29S
$$

ILZ067-068-072-073-078-083-087-091-191100-
SOUTHEAST ILLINOIS

CITY           SKY/WX    TMP DP  RH WIND       PRES   REMARKS
LAWRENCEVILLE  CLEAR     26  23  88 N5        30.30S WCI  20
$$

ABBREVIATIONS USED IN REMARKS
   TC - TEMPERATURE IN CELSIUS
  WCI - WIND CHILL INDEX
   HX - HEAT INDEX
  VSB - VISIBILITY
$$



USA.gov is the U.S. government's official web portal to all federal, state and local government web resources and services.